Location: Central Falls
(41.8900°N, 71.3929°W)
Time: 04:29:14
(UTC+00:00)

Vanguard 2 - Pass Details

Date: 07 December 2023
Orbit: 554 x 2918 km, 32.9° (Epoch: 01 March)

Event Time Altitude Azimuth Distance (km) Brightness Sun altitude
Rises 06:28:23 0° 276° (W) 6,211 - -59.8°
Reaches altitude 10° 06:33:30 10° 268° (W) 4,854 - -58.9°
Maximum altitude 06:44:10 32° 213° (SSW) 2,589 - -57.2°
Drops below altitude 10° 06:51:16 10° 154° (SSE) 3,185 - -56.0°
Sets 06:53:54 0° 143° (SE) 3,864 - -55.5°
